This demonstration page uses our WeatherBlox Daily Observations layout. Learn more.

Hourly Observations for February 7, 2017

Temp ( °F °C ) Dew Point ( °F °C ) Humidity (%) Winds ( mph kmh ) Pressure ( in mb ) Visibility ( mi km ) Precip ( " mm )
12:15 am 00:15 Cloudy 52 11 37 3 58 58 SSW 10 17 29.94 1014 10 16.09344 0 0
12:35 am 00:35 Cloudy 54 12 37 3 54 54 SSW 10 17 29.94 1014 10 16.09344 0 0
12:55 am 00:55 Cloudy 55 13 37 3 51 51 SSW 12 19 29.94 1014 10 16.09344 0 0
1:15 am 01:15 Cloudy 55 13 37 3 51 51 SSW 8 13 29.91 1013 10 16.09344 0 0
1:35 am 01:35 Cloudy 55 13 37 3 51 51 SSW 8 13 29.91 1013 10 16.09344 0 0
1:55 am 01:55 Cloudy 55 13 37 3 51 51 SSW 9 15 29.91 1013 10 16.09344 0 0
2:15 am 02:15 Cloudy 55 13 37 3 51 51 SSW 8 13 29.91 1013 10 16.09344 0 0
2:35 am 02:35 Mostly Cloudy 54 12 37 3 54 54 S 5 7 29.91 1013 10 16.09344 0 0
2:55 am 02:55 Mostly Cloudy 52 11 37 3 58 58 S 7 11 29.88 1012 10 16.09344 0 0
3:15 am 03:15 Mostly Cloudy 52 11 37 3 58 58 SSW 6 9 29.88 1012 10 16.09344 0 0
3:35 am 03:35 Partly Cloudy 52 11 37 3 58 58 SW 6 9 29.88 1012 10 16.09344 0 0
3:55 am 03:55 Partly Cloudy 52 11 37 3 58 58 S 3 6 29.88 1012 10 16.09344 0 0
4:15 am 04:15 Mostly Cloudy 52 11 37 3 58 58 S 6 9 29.88 1012 10 16.09344 0 0
4:35 am 04:35 Partly Cloudy 52 11 37 3 58 58 undefined N/A 29.88 1012 10 16.09344 0 0
4:55 am 04:55 Partly Cloudy 50 10 37 3 62 62 Calm 29.88 1012 10 16.09344 0 0
5:15 am 05:15 Mostly Cloudy 50 10 37 3 62 62 S 7 11 29.88 1012 10 16.09344 0 0
5:35 am 05:35 Partly Cloudy 52 11 37 3 58 58 SSE 5 7 29.85 1011 10 16.09344 0 0
5:55 am 05:55 Clear 50 10 37 3 62 62 SSE 3 6 29.88 1012 10 16.09344 0 0
6:15 am 06:15 Partly Cloudy 48 9 37 3 66 66 undefined N/A 29.85 1011 10 16.09344 0 0
6:35 am 06:35 Partly Cloudy 50 10 37 3 62 62 undefined N/A 29.85 1011 10 16.09344 0 0
6:55 am 06:55 Mostly Cloudy with Light Rain 52 11 41 5 67 67 SSE 8 13 29.83 1010 10 16.09344 0 0
7:15 am 07:15 Cloudy 48 9 41 5 76 76 N 7 11 29.85 1011 10 16.09344 0 0
7:35 am 07:35 Cloudy 48 9 41 5 76 76 NNE 6 9 29.85 1011 10 16.09344 0 0
7:55 am 07:55 Mostly Cloudy 50 10 41 5 71 71 Calm 29.85 1011 10 16.09344 0 0
8:15 am 08:15 Partly Cloudy 50 10 41 5 71 71 Calm 29.85 1011 10 16.09344 0 0
8:35 am 08:35 Partly Cloudy 50 10 45 7 82 82 NNE 5 7 29.85 1011 10 16.09344 0 0
8:55 am 08:55 Partly Cloudy 52 11 45 7 77 77 N 6 9 29.85 1011 10 16.09344 0 0
9:15 am 09:15 Sunny 54 12 43 6 67 67 N 3 6 29.85 1011 10 16.09344 0 0
9:35 am 09:35 Sunny 54 12 43 6 67 67 Calm 29.85 1011 10 16.09344 0 0
9:55 am 09:55 Sunny 55 13 43 6 63 63 ESE 5 7 29.83 1010 10 16.09344 0 0
10:15 am 10:15 Sunny 55 13 43 6 63 63 S 3 6 29.83 1010 10 16.09344 0 0
10:35 am 10:35 Sunny 59 15 45 7 59 59 SSW 3 6 29.83 1010 10 16.09344 0 0
10:55 am 10:55 Sunny 61 16 46 8 59 59 S 7 11 29.83 1010 10 16.09344 0 0
11:15 am 11:15 Sunny 63 17 46 8 56 56 S 6 9 29.8 1009 10 16.09344 0 0
11:35 am 11:35 Sunny 63 17 46 8 56 56 S 9 15 29.8 1009 10 16.09344 0 0
11:55 am 11:55 Sunny 64 18 48 9 56 56 S 7 11 29.8 1009 10 16.09344 0 0
12:15 pm 12:15 Sunny 64 18 48 9 56 56 S 7 11 29.77 1008 10 16.09344 0 0
12:35 pm 12:35 Sunny 66 19 50 10 56 56 SSW 7 11 29.77 1008 10 16.09344 0 0
12:55 pm 12:55 Sunny 68 20 50 10 53 53 SSW 9 15 29.74 1007 10 16.09344 0 0
1:15 pm 13:15 Sunny 70 21 50 10 50 50 S 14 22 29.71 1006 10 16.09344 0 0
1:35 pm 13:35 Sunny 70 21 50 10 50 50 SSW 14 22 29.71 1006 10 16.09344 0 0
1:55 pm 13:55 Sunny 70 21 52 11 53 53 SSW 15 24 29.68 1005 10 16.09344 0 0
2:15 pm 14:15 Sunny 72 22 52 11 50 50 SSW 15 24 29.68 1005 10 16.09344 0 0
2:35 pm 14:35 Sunny 72 22 52 11 50 50 SSW 14 22 29.68 1005 10 16.09344 0 0
2:55 pm 14:55 Sunny 72 22 52 11 50 50 SSW 15 24 29.68 1005 10 16.09344 0 0
3:15 pm 15:15 Sunny 72 22 52 11 50 50 SSW 16 26 29.65 1004 10 16.09344 0 0
3:35 pm 15:35 Sunny 72 22 52 11 50 50 SSW 14 22 29.65 1004 10 16.09344 0 0
3:55 pm 15:55 Sunny 72 22 54 12 53 53 SSW 13 20 29.65 1004 10 16.09344 0 0
4:15 pm 16:15 Sunny 72 22 54 12 53 53 SSW 22 35 29.65 1004 10 16.09344 0 0
4:35 pm 16:35 Sunny 72 22 54 12 53 53 SSW 16 26 29.65 1004 10 16.09344 0 0
4:55 pm 16:55 Sunny 72 22 52 11 50 50 SSW 17 28 29.62 1003 10 16.09344 0 0
5:15 pm 17:15 Sunny 70 21 52 11 53 53 SSW 22 35 29.62 1003 10 16.09344 0 0
5:35 pm 17:35 Sunny 70 21 52 11 53 53 SSW 14 22 29.62 1003 10 16.09344 0 0
5:55 pm 17:55 Clear 70 21 52 11 53 53 SSW 14 22 29.62 1003 10 16.09344 0 0
6:15 pm 18:15 Clear 70 21 52 11 53 53 S 10 17 29.62 1003 10 16.09344 0 0
6:35 pm 18:35 Clear 70 21 52 11 53 53 S 14 22 29.62 1003 10 16.09344 0 0
6:55 pm 18:55 Clear 70 21 52 11 53 53 S 12 19 29.62 1003 10 16.09344 0 0
7:15 pm 19:15 Clear 70 21 52 11 53 53 SSW 16 26 29.62 1003 10 16.09344 0 0
7:35 pm 19:35 Clear 70 21 52 11 53 53 SSW 13 20 29.62 1003 10 16.09344 0 0
7:55 pm 19:55 Clear 70 21 52 11 53 53 S 17 28 29.59 1002 10 16.09344 0 0
8:15 pm 20:15 Clear 68 20 52 11 56 56 SSW 15 24 29.59 1002 10 16.09344 0 0
8:35 pm 20:35 Clear 68 20 54 12 60 60 S 15 24 29.62 1003 10 16.09344 0 0
8:55 pm 20:55 Clear 68 20 54 12 60 60 SSW 15 24 29.59 1002 10 16.09344 0 0
9:15 pm 21:15 Clear 68 20 54 12 60 60 SSW 17 28 29.59 1002 10 16.09344 0 0
9:35 pm 21:35 Clear 68 20 54 12 60 60 SSW 17 28 29.59 1002 10 16.09344 0 0
9:55 pm 21:55 Clear 66 19 55 13 68 68 SSW 21 33 29.59 1002 10 16.09344 0 0
10:15 pm 22:15 Clear 66 19 55 13 68 68 SSW 17 28 29.59 1002 10 16.09344 0 0
10:35 pm 22:35 Clear 66 19 55 13 68 68 SSW 16 26 29.59 1002 10 16.09344 0 0
10:55 pm 22:55 Clear 64 18 55 13 73 73 SSW 14 22 29.59 1002 10 16.09344 0 0
11:15 pm 23:15 Clear 64 18 55 13 73 73 SSW 14 22 29.59 1002 10 16.09344 0 0
11:35 pm 23:35 Partly Cloudy 64 18 55 13 73 73 SSW 13 20 29.59 1002 10 16.09344 0 0
11:55 pm 23:55 Partly Cloudy 64 18 55 13 73 73 SSW 15 24 29.59 1002 10 16.09344 0 0

Powered by AerisWeather